Temperature
18 19 19 19 19 17 17 16 16 17 16 17 16 15 16 16 17 16 17 17 17 17 16 16 16 16 15 15 15 15 14 14 14 14 14 13 13 13 13 13 12 12 12 12
19 19 19 19 19 18 17 17 17 17 17 17 17 16 16 16 16 16 17 17 17 17 16 16 16 16 15 15 15 14 14 14 14 14 13 13 13 13 12 12 12 12 12 12
18 18 19 19 19 18 18 17 17 17 18 15 15 15 16 16 17 17 18 18 17 17 17 16 16 16 15 15 15 14 14 14 14 13 13 13 12 12 12 12 12 12 12 12
16 19 19 19 19 19 18 18 17 17 17 15 17 18 18 18 18 18 18 18 18 17 17 16 16 16 15 15 14 14 14 14 13 13 13 13 12 12 12 12 12 11 11 11
15 17 17 18 19 18 18 18 17 17 16 16 17 16 16 18 19 19 19 19 18 17 17 16 16 15 15 15 14 14 14 13 13 13 13 12 12 12 12 11 11 11 11 11
14 17 18 19 19 19 19 19 18 17 16 15 16 15 16 20 19 19 18 18 18 17 16 16 16 15 15 14 14 14 14 13 13 13 12 12 12 12 11 11 11 11 11 11
14 16 16 17 18 19 19 19 20 19 18 16 17 19 20 20 19 19 18 18 17 17 16 16 16 15 15 14 14 14 13 13 13 12 12 12 12 11 11 11 11 11 10 10
13 15 17 18 17 18 19 20 21 20 20 19 20 20 20 20 19 19 18 17 17 16 16 16 15 15 15 14 14 13 13 13 12 12 12 12 11 11 11 11 11 10 10 10
14 16 17 18 19 20 20 21 21 21 21 20 19 20 20 20 19 18 18 17 17 16 16 15 15 15 14 14 13 13 13 12 12 12 11 11 11 11 11 10 10 10 10 9
13 14 16 18 19 20 20 21 21 21 21 20 20 20 19 19 19 18 18 17 17 16 16 15 15 14 14 13 13 13 12 12 12 11 11 11 11 10 10 10 10 9 9 9
13 14 16 19 20 20 21 21 21 21 21 20 20 19 19 19 18 18 17 17 16 16 16 15 15 14 14 13 13 12 12 12 11 11 11 10 10 10 10 10 9 9 9 8
15 16 15 19 20 20 20 20 20 20 20 19 19 19 19 18 18 17 17 16 16 16 15 15 14 14 13 13 12 12 12 11 11 11 10 10 10 10 9 9 9 9 8 8
18 18 18 19 19 19 20 20 20 20 20 19 19 19 18 18 17 17 16 16 16 15 15 14 14 13 13 12 12 11 11 11 10 10 10 10 9 9 9 9 8 8 8 8
17 17 17 18 18 19 19 19 19 19 19 18 18 18 17 17 17 16 16 16 15 15 14 14 13 13 12 12 11 11 11 10 10 10 9 9 9 9 8 8 8 8 8 8
17 17 17 17 18 18 18 18 18 18 17 17 17 17 17 16 16 16 15 15 14 14 13 13 13 13 12 11 11 11 10 10 10 9 9 9 8 8 8 8 7 7 7 7
16 16 16 16 17 17 17 17 17 17 17 16 16 16 16 16 15 15 15 14 14 13 13 13 12 12 11 11 11 10 10 9 9 9 9 8 8 8 7 7 7 7 7 7
15 15 15 15 16 16 16 16 16 16 16 15 15 15 15 15 14 14 14 14 13 13 13 12 12 11 11 11 10 10 10 9 9 8 8 8 8 7 7 7 7 6 6 6
15 15 15 15 15 15 15 15 15 15 15 15 14 14 14 14 14 14 13 13 13 12 12 12 11 11 10 10 10 9 9 9 8 8 8 7 7 7 7 6 6 6 6 6
14 14 14 14 14 14 14 14 14 14 14 14 13 13 13 13 13 13 12 12 12 12 12 11 11 10 10 10 9 9 9 8 8 7 7 7 7 6 6 6 6 5 5 5
13 13 13 13 13 13 13 13 13 13 13 13 13 13 12 12 12 12 12 11 12 12 11 11 10 10 9 9 9 8 8 8 7 7 7 6 6 6 5 5 5 5 4 4
12 12 13 13 13 12 12 12 12 12 12 12 12 12 12 12 11 11 11 11 11 11 10 10 10 9 9 8 8 8 7 7 7 7 6 6 6 5 5 5 4 4 4 4
12 12 12 12 12 12 11 11 11 11 11 11 11 11 11 11 11 10 10 10 10 10 9 9 9 9 8 8 8 7 7 7 6 6 6 6 5 5 5 4 4 4 4 4
11 11 11 11 11 11 11 11 11 11 10 10 10 10 10 10 10 9 9 9 9 9 9 8 8 8 8 7 7 7 7 6 6 6 6 5 5 5 4 4 4 3 3 3
10 10 10 10 10 10 10 10 10 10 10 10 9 9 9 9 9 9 9 8 8 8 8 8 7 7 7 7 6 6 6 6 6 5 5 5 5 4 4 4 3 3 3 3
9 9 9 9 9 9 9 9 9 9 9 8 8 8 8 8 8 8 8 8 7 7 7 7 7 6 6 6 6 6 6 5 5 5 4 4 4 4 3 3 3 3 3 3
8 8 8 8 8 8 8 8 7 7 7 7 7 7 7 7 7 7 7 7 7 7 6 6 6 6 6 5 5 5 5 5 4 4 4 4 4 3 3 3 3 3 3 2
7 7 7 7 7 7 7 7 7 7 7 7 7 7 7 6 6 6 6 6 6 6 6 6 5 5 5 5 5 5 4 4 4 4 4 3 3 3 3 3 3 2 2 2
Wind_Speed
6 5 5 6 7 9 8 8 9 9 9 10 10 12 10 9 9 8 8 8 8 7 6 5 4 4 3 3 2 3 3 3 2 1 0 0 1 1 1 1 1 1 2 3
2 3 4 4 6 9 8 6 7 5 8 8 5 6 8 10 11 11 10 10 9 8 7 7 6 5 4 3 2 3 3 2 1 1 1 0 0 1 1 2 2 2 2 3
3 3 2 5 8 10 7 7 9 10 11 5 6 12 14 14 14 13 12 11 11 10 9 8 7 6 5 4 3 3 3 1 1 1 1 0 0 0 1 2 1 2 3 3
1 1 5 9 4 7 7 8 9 8 7 10 10 9 8 10 14 13 12 11 11 9 8 7 6 5 5 4 4 3 2 1 1 1 1 0 0 0 1 1 1 2 3 3
4 3 7 9 5 6 7 7 8 9 7 5 5 4 2 8 11 12 12 10 9 9 8 7 7 6 6 4 4 3 2 2 1 2 2 1 1 2 2 1 2 2 3 3
5 4 6 8 3 4 5 6 6 9 9 9 10 5 7 8 10 10 9 8 8 8 7 8 7 7 7 5 4 4 3 3 2 2 2 2 2 2 1 1 2 2 3 3
5 6 8 9 3 6 5 8 4 8 10 14 12 8 4 8 9 9 9 8 9 9 9 8 8 8 7 6 5 5 3 2 2 2 2 2 1 1 1 1 1 2 3 4
6 4 9 5 7 8 9 3 4 7 10 12 7 4 6 9 10 10 10 9 9 10 8 7 8 9 8 7 5 3 3 2 1 1 1 1 1 1 1 1 1 3 3 5
9 8 5 4 7 5 3 4 5 7 7 9 7 6 6 8 9 10 10 10 9 9 8 6 7 8 9 7 5 4 3 2 2 1 1 1 1 1 1 1 1 3 3 4
5 8 7 7 6 5 5 5 5 6 7 10 8 8 7 8 8 9 9 9 9 9 9 8 7 7 7 6 6 5 4 3 2 2 2 1 1 2 2 2 2 3 4 5
5 8 7 6 5 4 3 3 3 3 6 9 10 8 8 9 9 9 8 8 9 10 10 10 8 7 6 6 7 6 4 3 2 2 2 2 2 3 3 4 5 5 5 5
7 7 5 6 5 3 3 4 5 5 4 5 9 10 8 8 8 8 9 8 9 9 9 8 8 7 6 6 7 6 4 4 3 2 2 2 2 3 5 6 9 10 9 8
6 4 5 6 4 3 4 4 4 6 7 7 6 8 8 7 7 8 8 9 10 10 9 8 8 7 7 6 7 7 5 5 3 3 3 3 2 3 5 6 7 8 9 10
5 3 4 4 4 3 2 2 2 3 4 5 6 6 7 6 6 8 10 10 9 8 8 8 8 7 7 7 7 6 5 5 4 4 4 4 4 4 4 5 6 6 7 10
5 5 6 4 2 1 1 3 3 3 3 3 5 7 8 8 9 9 8 7 7 7 7 7 8 7 6 7 7 6 5 4 4 4 4 4 4 4 4 5 5 6 6 7
3 2 2 2 2 2 2 3 4 4 4 4 4 6 7 7 6 6 6 8 9 9 9 9 9 8 7 7 7 5 5 7 5 4 3 4 4 4 5 5 6 6 7 7
2 2 3 3 3 3 3 4 5 5 5 5 6 5 5 5 5 5 5 7 8 8 8 9 8 7 7 7 7 6 5 5 7 4 4 5 5 5 6 6 6 7 7 8
6 6 5 5 5 4 3 2 3 3 4 4 4 4 6 7 7 7 6 5 5 4 6 7 7 6 7 7 7 6 5 5 4 5 5 5 5 6 6 6 7 8 7 8
3 3 3 3 3 4 3 3 3 3 2 3 4 5 5 6 6 6 5 6 6 7 7 7 9 8 7 8 7 5 6 6 5 5 5 7 7 5 6 6 7 7 7 7
1 1 1 1 1 1 2 2 2 2 2 3 3 3 3 3 4 5 6 6 7 7 7 7 7 6 7 7 8 5 6 6 6 6 5 5 6 6 6 7 7 7 7 8
1 1 1 2 1 1 1 2 3 2 2 3 4 4 4 4 4 5 5 5 6 6 5 7 6 6 6 7 7 5 6 6 6 6 6 6 6 6 7 7 7 8 8 8
1 1 1 1 1 1 1 1 2 2 2 2 3 3 2 2 3 3 5 6 5 5 4 4 5 7 8 8 5 5 6 6 6 5 5 6 6 6 7 8 8 8 8 9
1 1 1 1 2 2 0 0 1 2 2 3 3 4 4 4 4 3 4 5 4 6 4 5 7 10 10 6 5 6 6 6 6 6 6 6 7 7 7 8 8 8 8 9
2 1 1 1 0 1 1 2 1 2 2 2 3 4 4 3 3 4 4 5 6 6 5 7 10 10 8 5 5 6 6 7 7 7 7 7 7 7 7 8 8 8 9 10
2 2 1 1 1 2 3 2 1 1 1 2 3 4 4 4 4 4 4 4 5 5 4 7 10 9 5 5 6 6 6 7 7 7 6 6 7 7 8 8 8 9 9 9
2 2 2 3 3 3 2 2 2 3 2 3 3 3 3 3 3 3 3 4 5 5 4 4 4 5 5 5 6 7 7 8 8 7 7 7 8 8 8 8 10 9 9 9
2 2 2 2 3 3 3 3 3 4 4 4 4 4 3 3 3 3 3 3 3 4 4 4 4 5 5 6 6 7 7 7 7 7 7 7 7 7 8 9 8 8 8 8
Wind_Direction
228 227 192 206 198 180 188 193 196 225 223 236 213 201 194 181 171 169 176 179 180 181 181 177 172 171 168 170 163 148 142 148 180 189 142 85 14 337 340 337 329 328 343 341
278 246 211 233 224 200 209 205 217 237 251 243 194 165 172 178 178 184 188 189 185 181 179 182 181 177 167 165 166 152 154 172 173 129 109 101 322 341 343 328 327 342 332 326
267 315 42 265 227 202 206 203 187 212 231 183 173 189 193 190 189 192 192 188 186 185 185 185 183 175 171 173 154 142 146 144 134 140 144 231 293 23 314 299 315 322 316 318
170 81 242 246 246 200 208 228 212 221 216 191 196 196 194 190 190 193 190 187 187 184 182 180 173 168 159 146 143 138 132 131 136 142 162 185 113 282 285 285 283 291 300 304
140 203 273 292 254 182 188 253 218 211 214 177 122 96 239 206 195 196 191 186 182 179 173 167 168 164 146 142 142 138 151 169 181 172 169 162 224 267 270 264 279 280 286 297
139 177 238 253 254 170 129 276 238 191 183 155 134 162 233 199 185 185 176 170 166 159 153 161 169 155 147 153 153 173 192 195 188 171 165 188 228 249 250 245 259 280 293 292
172 211 256 252 224 130 162 242 231 182 175 167 181 200 186 160 174 174 167 164 159 157 165 174 165 154 157 162 185 200 188 174 173 181 182 200 211 237 265 269 291 299 300 302
156 189 251 231 148 180 216 237 190 185 181 182 189 157 152 162 167 165 163 160 160 162 170 168 163 160 166 188 200 177 159 160 185 209 219 199 177 265 301 287 296 300 306 309
189 212 243 222 215 243 217 216 206 190 186 172 168 177 171 169 169 170 168 166 165 164 164 166 172 171 179 196 178 163 160 179 211 219 227 211 196 226 281 280 275 289 291 295
244 267 262 259 253 255 224 229 224 193 175 169 175 177 174 171 171 171 171 169 165 161 166 179 185 187 189 182 172 164 175 196 209 212 236 246 233 217 223 248 260 272 276 280
255 278 297 288 256 254 241 228 195 171 176 177 170 176 178 177 179 178 174 171 169 174 180 187 186 190 187 174 166 169 183 200 213 220 230 245 251 240 237 241 237 247 253 256
229 236 217 261 277 240 220 224 195 170 172 180 177 179 178 180 182 177 175 172 174 180 184 186 184 190 188 180 172 172 187 206 215 221 232 237 257 289 270 259 275 270 267 266
234 250 221 261 279 239 222 223 202 187 182 182 181 175 174 177 179 174 175 177 184 188 187 182 182 191 195 186 179 181 194 206 213 220 229 241 250 264 290 300 291 282 281 282
242 233 251 254 258 253 221 197 166 161 172 170 170 166 165 167 169 177 188 192 186 180 179 179 182 198 199 185 182 190 199 214 216 221 230 238 245 250 254 271 293 294 291 290
245 220 233 257 271 250 152 132 132 153 162 161 161 166 169 174 184 194 193 177 165 169 180 181 189 206 193 180 183 192 200 213 219 224 231 240 248 254 257 260 266 277 290 297
258 246 224 216 217 198 157 156 168 191 187 183 182 186 186 183 183 181 173 166 168 186 193 191 201 207 189 183 186 195 209 226 225 224 233 244 251 255 260 263 267 271 276 281
201 229 225 231 226 217 207 202 196 196 192 190 196 189 171 162 161 174 185 186 187 194 194 195 205 201 188 188 190 200 210 228 237 239 236 242 248 252 256 259 264 269 272 274
217 220 212 205 205 210 218 206 190 189 196 201 184 165 167 173 186 197 196 182 180 198 209 208 205 197 195 197 196 200 206 218 224 232 240 245 253 254 257 261 265 270 278 283
226 225 224 214 200 189 192 195 197 200 196 170 163 176 188 194 195 193 180 172 185 211 226 218 211 202 205 210 204 201 208 219 230 238 242 255 262 259 260 262 265 268 273 277
261 241 190 170 143 160 183 194 177 168 172 161 158 165 184 206 199 189 181 193 211 219 217 208 202 204 211 215 210 203 211 221 231 240 243 245 253 260 260 262 264 268 272 273
236 197 163 158 164 179 184 178 166 175 182 159 165 187 205 213 197 183 182 218 241 228 212 206 200 208 212 216 214 207 215 224 231 237 241 245 251 257 260 263 265 269 274 276
231 187 194 179 160 234 262 190 171 173 168 166 173 180 185 205 203 201 210 223 237 223 205 210 214 221 220 217 204 208 218 225 232 235 238 242 247 254 260 263 266 271 274 275
292 216 196 197 192 204 246 206 180 175 182 192 194 195 200 211 206 203 243 248 236 231 217 220 226 228 225 212 207 214 222 228 233 236 240 243 246 251 259 264 267 271 275 276
312 307 292 277 178 153 214 254 242 227 218 222 220 211 204 211 237 234 231 244 242 241 230 233 234 233 229 215 218 225 231 235 238 241 244 247 250 254 259 263 268 271 273 275
306 309 313 305 257 247 240 240 256 270 259 260 254 243 229 211 219 238 239 242 245 244 240 243 244 245 235 225 227 232 237 241 245 247 243 249 254 258 262 264 267 272 273 274
285 279 268 257 251 251 246 237 248 256 251 258 265 260 255 249 239 236 235 237 241 243 241 240 240 244 237 236 237 238 240 251 260 257 250 253 257 260 264 267 269 271 273 274
288 286 286 290 279 251 236 231 237 248 245 240 250 253 248 248 245 242 240 238 238 237 235 235 237 238 240 241 243 245 245 245 245 248 252 255 258 261 265 268 271 273 276 277
Height
1512 1509 1510 1511 1513 1518 1521 1523 1529 1523 1521 1512 1509 1509 1511 1515 1518 1521 1524 1527 1529 1532 1534 1536 1538 1539 1541 1542 1542 1543 1543 1543 1543 1543 1543 1543 1543 1543 1542 1542 1541 1540 1539 1538
1510 1506 1508 1509 1508 1512 1514 1515 1517 1515 1513 1503 1504 1507 1510 1513 1515 1518 1520 1523 1526 1529 1531 1533 1535 1537 1539 1540 1541 1541 1541 1541 1541 1541 1542 1542 1541 1541 1541 1540 1539 1538 1537 1536
1518 1511 1509 1514 1504 1505 1506 1505 1507 1510 1503 1500 1503 1503 1504 1507 1510 1512 1515 1519 1522 1525 1528 1531 1533 1535 1536 1538 1539 1539 1539 1540 1540 1540 1540 1540 1539 1539 1539 1538 1537 1536 1535 1533
1520 1515 1522 1506 1493 1494 1497 1496 1496 1495 1493 1494 1494 1497 1500 1503 1506 1509 1512 1516 1519 1523 1526 1528 1531 1533 1535 1536 1536 1537 1537 1538 1538 1538 1538 1538 1537 1537 1536 1535 1534 1533 1532 1531
1524 1522 1516 1501 1491 1492 1495 1494 1488 1490 1490 1493 1495 1499 1500 1501 1503 1506 1509 1513 1517 1520 1523 1526 1528 1531 1532 1533 1534 1535 1535 1535 1536 1536 1536 1535 1535 1534 1534 1533 1532 1530 1529 1528
1522 1519 1519 1500 1486 1485 1490 1495 1483 1484 1486 1490 1494 1502 1497 1496 1500 1504 1508 1511 1515 1518 1521 1524 1526 1528 1530 1531 1531 1532 1533 1533 1533 1533 1533 1532 1532 1531 1531 1530 1529 1527 1526 1525
1519 1517 1509 1488 1484 1487 1500 1494 1479 1479 1481 1485 1487 1488 1489 1493 1497 1501 1505 1509 1512 1515 1518 1521 1523 1525 1526 1528 1528 1529 1530 1531 1531 1530 1530 1530 1529 1529 1528 1527 1525 1524 1523 1521
1516 1516 1507 1481 1483 1486 1483 1476 1476 1477 1478 1481 1483 1486 1488 1491 1495 1498 1502 1506 1509 1512 1515 1518 1520 1522 1523 1524 1526 1527 1527 1528 1528 1528 1527 1527 1526 1525 1525 1523 1522 1520 1519 1517
1497 1493 1481 1478 1477 1476 1476 1475 1475 1475 1477 1480 1482 1485 1487 1490 1493 1496 1500 1503 1506 1509 1512 1515 1517 1519 1520 1522 1523 1523 1524 1524 1524 1524 1524 1524 1523 1522 1521 1520 1518 1516 1514 1512
1489 1481 1476 1475 1474 1474 1474 1474 1474 1474 1476 1478 1480 1483 1486 1489 1491 1494 1497 1500 1503 1506 1509 1511 1513 1515 1517 1519 1520 1520 1520 1521 1521 1521 1520 1520 1519 1518 1517 1515 1514 1512 1510 1508
1484 1477 1473 1471 1471 1471 1472 1472 1472 1473 1475 1476 1479 1481 1484 1486 1489 1492 1494 1497 1500 1503 1505 1508 1510 1512 1513 1515 1516 1517 1517 1517 1517 1517 1517 1516 1515 1514 1513 1512 1510 1508 1506 1504
1479 1472 1472 1470 1470 1470 1470 1470 1471 1471 1473 1475 1477 1479 1481 1484 1486 1489 1492 1494 1497 1499 1502 1504 1506 1508 1510 1511 1512 1513 1513 1513 1513 1513 1513 1512 1511 1510 1509 1508 1506 1504 1502 1500
1469 1469 1468 1468 1468 1468 1468 1468 1469 1469 1470 1472 1474 1477 1479 1481 1484 1486 1489 1491 1493 1495 1498 1500 1502 1504 1506 1507 1508 1509 1509 1509 1509 1509 1508 1507 1506 1505 1503 1502 1501 1499 1497 1495
1466 1466 1465 1465 1465 1465 1465 1465 1466 1467 1469 1470 1472 1474 1476 1478 1481 1483 1485 1487 1490 1492 1494 1496 1498 1500 1502 1503 1504 1504 1505 1505 1505 1504 1504 1503 1501 1500 1498 1496 1494 1492 1491 1489
1461 1462 1462 1462 1462 1462 1462 1463 1464 1465 1466 1467 1469 1471 1473 1475 1477 1479 1482 1484 1486 1488 1490 1492 1494 1496 1497 1498 1499 1500 1500 1500 1500 1500 1499 1498 1496 1495 1493 1491 1488 1486 1484 1482
1458 1458 1458 1458 1458 1459 1459 1460 1461 1462 1463 1464 1466 1468 1470 1472 1474 1476 1478 1480 1482 1483 1485 1487 1489 1491 1492 1493 1494 1495 1495 1495 1495 1494 1493 1492 1491 1489 1487 1485 1482 1480 1477 1475
1454 1454 1454 1455 1455 1456 1456 1457 1458 1459 1460 1461 1463 1465 1466 1468 1470 1472 1474 1476 1478 1479 1481 1483 1485 1486 1487 1488 1489 1489 1489 1489 1489 1488 1487 1486 1485 1483 1481 1478 1476 1473 1471 1469
1451 1451 1452 1452 1452 1453 1453 1454 1455 1456 1457 1458 1460 1461 1463 1464 1466 1468 1470 1472 1473 1475 1477 1478 1480 1481 1482 1483 1483 1483 1483 1483 1483 1482 1481 1480 1478 1476 1474 1472 1469 1466 1463 1461
1447 1448 1448 1449 1450 1450 1450 1451 1452 1454 1455 1456 1457 1458 1460 1461 1463 1464 1466 1467 1468 1470 1471 1473 1474 1475 1476 1477 1477 1477 1477 1477 1476 1475 1474 1473 1471 1469 1467 1465 1462 1460 1457 1454
1443 1444 1445 1446 1446 1447 1448 1448 1449 1450 1452 1453 1454 1455 1456 1457 1459 1460 1461 1462 1463 1464 1466 1467 1468 1469 1470 1471 1471 1471 1471 1471 1470 1469 1468 1466 1464 1462 1460 1458 1456 1453 1450 1447
1440 1441 1442 1442 1443 1444 1445 1446 1446 1447 1448 1450 1450 1451 1452 1453 1454 1455 1456 1457 1458 1459 1460 1461 1462 1463 1464 1464 1465 1465 1465 1464 1463 1462 1461 1459 1457 1456 1454 1451 1449 1446 1443 1440
1438 1438 1439 1440 1440 1441 1442 1443 1444 1444 1445 1446 1447 1448 1449 1449 1450 1451 1451 1452 1453 1454 1454 1455 1456 1457 1457 1458 1458 1458 1458 1457 1456 1455 1454 1452 1451 1449 1447 1444 1442 1439 1436 1432
1436 1436 1436 1437 1437 1438 1439 1440 1441 1442 1442 1443 1443 1444 1445 1445 1446 1447 1447 1447 1448 1448 1449 1449 1450 1451 1451 1451 1451 1451 1451 1451 1450 1449 1447 1445 1444 1441 1439 1437 1434 1431 1428 1424
1434 1434 1434 1435 1435 1435 1436 1437 1438 1439 1439 1440 1440 1441 1441 1441 1441 1442 1443 1443 1443 1443 1443 1443 1444 1444 1445 1445 1445 1445 1444 1444 1443 1441 1440 1438 1436 1434 1431 1429 1426 1423 1419 1416
1431 1431 1431 1432 1432 1432 1432 1433 1434 1435 1435 1436 1436 1437 1437 1437 1437 1437 1438 1438 1438 1438 1438 1438 1438 1438 1438 1438 1438 1438 1437 1436 1435 1434 1432 1430 1428 1426 1423 1421 1418 1415 1411 1408
1428 1429 1429 1429 1429 1429 1429 1430 1430 1430 1431 1431 1431 1432 1432 1433 1433 1433 1433 1433 1432 1432 1432 1432 1432 1432 1432 1432 1431 1430 1429 1428 1427 1426 1424 1422 1420 1418 1416 1413 1410 1407 1404 1400
1425 1425 1425 1424 1425 1425 1426 1426 1426 1426 1427 1427 1427 1427 1427 1427 1427 1427 1427 1427 1427 1426 1426 1426 1426 1426 1425 1425 1424 1423 1422 1421 1420 1418 1417 1415 1413 1411 1408 1405 1402 1399 1396 1392